HISPASAT 36W-1 (41942 NORAD) Tracking and Keplerian Element Data

This shows tracking and keplerian element data for the satellite.

Feedback or suggestion? Click here.




ElementValue
Catalog41942
NameHISPASAT 36W-1
Epoch Orbit3245
Epoch Day354.11615878
Epoch Year2025
RAAN355.3731
Inclination0.0102
Eccentricity9.18E-05
Argument of Perigee277.2845
Mean Anonmoly182.1019
Mean Motion1.00268642
Decay Rate0
L11 41942U 17006A 25354.11615878 .00000000 00000+0 00000+0 0 9998
L22 41942 0.0102 355.3731 0000918 277.2845 182.1019 1.00268642 32450



Live tracking and technical data element details for HISPASAT 36W-1 (NORAD 41942). HISPASAT 36W-1 can be tracked NOW for your location showing map with azimuth and elevation plus other details from your city location.







IsCatalogInMostPopularTable: catalog: 41942, numindb: 741
Update: records affected: 1



GetName: 41942 HISPASAT 36W-1

Hit Count: updated at: Thu, 16 Apr 2026 05:13:16 GMT